Location: Drummondville
(45.8830°N, 72.4830°W)
Time: 22:45:46
(UTC-05:00)

Tiangong 1 - Pass Details

Date: 10 November 2017
Orbit: 284 x 308 km, 42.8° (Epoch: 21 November)

Event Time Altitude Azimuth Distance (km) Brightness Sun altitude
Exits shadow 04:33:26 16° 128° (SE) 873 3.5 -22.7°
Drops below altitude 10° 04:34:10 10° 120° (ESE) 1,142 4.3 -22.6°
Sets 04:36:11 0° 111° (ESE) 1,967 5.9 -22.2°
